Location: Cussy
(47.0410°N, 4.6412°E)
Time: 05:44:34
(UTC+00:00)

SMAP - Pass Details

Date: 30 November 2020
Orbit: 681 x 683 km, 98.1° (Epoch: 18 January)

Event Time Altitude Azimuth Distance (km) Brightness Sun altitude
Rises 16:23:39 0° 146° (SE) 3,036 6.3 -5.2°
Reaches altitude 10° 16:25:57 10° 139° (SE) 2,125 5.5 -5.5°
Maximum altitude 16:30:20 43° 69° (ENE) 968 3.4 -6.2°
Drops below altitude 10° 16:34:44 10° 359° (N) 2,140 5.4 -6.9°
Sets 16:37:04 0° 353° (N) 3,060 6.2 -7.2°
